Location: ????????
(60.5616°N, 46.8254°E)
Time: 15:20:23
(UTC+00:00)

Cosmos 2263 Rocket - Pass Details

Date: 18 February 2020
Orbit: 822 x 850 km, 71.0° (Epoch: 27 March)

Event Time Altitude Azimuth Distance (km) Brightness Sun altitude
Rises 19:40:00 0° 318° (NW) 3,408 6.2 -38.5°
Reaches altitude 10° 19:42:27 10° 319° (NW) 2,475 5.3 -38.6°
Enters shadow 19:44:54 27° 321° (NW) 1,583 4.0 -38.8°
